Zephyrhills, FL

7:45 AM EDT on September 17, 2019 (GMT -0400)
Zephyrhills Municipal

Weather History for KZPH - August, 2019

Change the Weather History Date:

Thursday, August 22, 2019

  Actual Average (KPCM) Record (KPCM)
Temperature  
Mean Temperature 83 °F -  
Max Temperature 93 °F 91 °F 98 °F (1980)
Min Temperature 73 °F 71 °F 63 °F (1973)
Cooling Degree Days 18    
Growing Degree Days 33 (Base 50)    
Moisture  
Dew Point 74 °F    
Average Humidity 80    
Maximum Humidity 99    
Minimum Humidity 50    
Precipitation  
Precipitation 0.00 in - - ()
Sea Level Pressure  
Sea Level Pressure 30.05 in    
Wind  
Wind Speed 2 mph ()    
Max Wind Speed 17 mph    
Max Gust Speed 25 mph    
Visibility 9.5 miles    
Events Thunderstorm    
Averages and records for this station are not official NWS values.
T = Trace of Precipitation, MM = Missing Value Source: Averaged Metar Reports

Daily Weather History Graph

Daily Weather History Graph

Search for Another Location

Airport or City:

Astronomy

Aug. 22, 2019 Rise Set
Actual Time 7:01 AM EDT 8:00 PM EDT
Civil Twilight 6:37 AM EDT 8:24 PM EDT
Nautical Twilight 6:08 AM EDT 8:53 PM EDT
Astronomical Twilight 5:39 AM EDT 9:23 PM EDT
Moon No Moon Rise 1:03 PM EDT (8/22)
Length of Visible Light 13h 47m
Length of Day
12h 58m
Waning Gibbous, 60% of the Moon is Illuminated
Aug 22
Waning Gibbous
Aug 23
Last Quarter
Aug 30
New
Sep 5
First Quarter
Sep 14
Full

Hourly Weather History & Observations

Time (EDT) Temp. Heat Index Dew Point Humidity Pressure Visibility Wind Dir Wind Speed Gust Speed Precip Events Conditions
12:15 AM 77.2 °F - 75.0 °F 93% 30.09 in 10.0 mi Calm Calm - N/A   Clear
12:35 AM 76.6 °F - 75.2 °F 95% 30.09 in 10.0 mi Calm Calm - N/A   Clear
12:55 AM 77.4 °F - 75.4 °F 94% 30.08 in 10.0 mi Calm Calm - N/A   Clear
1:15 AM 76.1 °F - 75.0 °F 96% 30.08 in 10.0 mi Calm Calm - N/A   Clear
1:35 AM 76.3 °F - 74.8 °F 95% 30.08 in 7.0 mi ENE 3.5 mph - N/A   Clear
1:55 AM 76.1 °F - 75.0 °F 96% 30.07 in 10.0 mi Calm Calm - N/A   Clear
2:15 AM 76.6 °F - 75.0 °F 95% 30.06 in 10.0 mi Calm Calm - N/A   Clear
2:35 AM 75.9 °F - 74.8 °F 96% 30.06 in 7.0 mi Calm Calm - N/A   Clear
2:55 AM 75.2 °F - 74.3 °F 97% 30.06 in 7.0 mi Calm Calm - N/A   Clear
3:15 AM 75.2 °F - 74.1 °F 96% 30.06 in 7.0 mi Calm Calm - N/A   Clear
3:35 AM 75.0 °F - 74.3 °F 98% 30.05 in 10.0 mi Calm Calm - N/A   Clear
3:55 AM 75.2 °F - 74.3 °F 97% 30.05 in 10.0 mi Calm Calm - N/A   Clear
4:15 AM 75.2 °F - 74.5 °F 98% 30.05 in 10.0 mi Calm Calm - N/A   Clear
4:35 AM 75.6 °F - 74.8 °F 98% 30.05 in 10.0 mi Calm Calm - N/A   Clear
4:55 AM 74.5 °F - 73.4 °F 96% 30.05 in 10.0 mi NE 3.5 mph - N/A   Clear
5:15 AM 73.9 °F - 73.6 °F 99% 30.05 in 10.0 mi East 4.6 mph - N/A   Clear
5:55 AM 74.7 °F - 73.9 °F 98% 30.05 in 10.0 mi East 3.5 mph - N/A   Clear
6:15 AM 74.3 °F - 73.8 °F 98% 30.05 in 10.0 mi Calm Calm - N/A   Clear
6:35 AM 74.1 °F - 73.6 °F 98% 30.06 in 10.0 mi Calm Calm - N/A   Clear
6:55 AM 73.8 °F - 73.4 °F 99% 30.06 in 7.0 mi Calm Calm - N/A   Clear
7:15 AM 74.3 °F - 73.9 °F 99% 30.07 in 3.0 mi Calm Calm - N/A   Clear
7:35 AM 74.8 °F - 74.3 °F 98% 30.08 in 10.0 mi Calm Calm - N/A   Clear
7:55 AM 75.9 °F - 75.0 °F 97% 30.08 in 10.0 mi Calm Calm - N/A   Clear
8:15 AM 77.0 °F - 75.6 °F 95% 30.08 in 10.0 mi Calm Calm - N/A   Clear
8:35 AM 78.3 °F - 76.3 °F 94% 30.09 in 10.0 mi Calm Calm - N/A   Clear
8:55 AM 79.7 °F - 76.6 °F 90% 30.09 in 7.0 mi Calm Calm - N/A   Clear
9:35 AM 82.9 °F 91.2 °F 76.3 °F 80% 30.10 in 10.0 mi Calm Calm - N/A   Clear
9:55 AM 84.2 °F 92.3 °F 75.0 °F 74% 30.10 in 10.0 mi Calm Calm - N/A   Clear
10:15 AM 84.0 °F 92.2 °F 75.2 °F 75% 30.10 in 10.0 mi SE 3.5 mph - N/A   Scattered Clouds
10:35 AM 86.4 °F 96.0 °F 75.4 °F 70% 30.10 in 10.0 mi ESE 4.6 mph - N/A   Mostly Cloudy
11:15 AM 86.0 °F 94.6 °F 74.7 °F 69% 30.09 in 10.0 mi Calm Calm - N/A   Scattered Clouds
11:35 AM 86.4 °F 93.8 °F 73.4 °F 65% 30.09 in 10.0 mi South 3.5 mph - N/A   Scattered Clouds
11:55 AM 88.5 °F 97.3 °F 73.9 °F 62% 30.09 in 10.0 mi Calm Calm - N/A   Mostly Cloudy
12:15 PM 87.6 °F 94.8 °F 72.5 °F 61% 30.09 in 10.0 mi North 5.8 mph - N/A   Scattered Clouds
12:35 PM 88.0 °F 95.1 °F 72.3 °F 60% 30.08 in 10.0 mi SSE 3.5 mph - N/A   Scattered Clouds
12:55 PM 88.5 °F 95.8 °F 72.3 °F 59% 30.08 in 10.0 mi NNW 3.5 mph - N/A   Scattered Clouds
1:15 PM 88.9 °F 95.6 °F 72.0 °F 57% 30.07 in 10.0 mi North 4.6 mph - N/A   Mostly Cloudy
1:35 PM 90.1 °F 96.3 °F 71.1 °F 53% 30.07 in 10.0 mi NE 3.5 mph - N/A   Scattered Clouds
1:55 PM 90.7 °F 97.9 °F 72.0 °F 54% 30.06 in 5.0 mi NE 4.6 mph - N/A   Haze
2:15 PM 90.3 °F 96.7 °F 71.2 °F 53% 30.05 in 10.0 mi Calm Calm - N/A   Mostly Cloudy
2:35 PM 91.4 °F 100.1 °F 73.4 °F 55% 30.05 in 10.0 mi NNE 3.5 mph - N/A   Scattered Clouds
2:55 PM 89.6 °F 97.2 °F 72.5 °F 57% 30.03 in 10.0 mi NNE 5.8 mph - N/A   Mostly Cloudy
3:15 PM 92.3 °F 100.3 °F 72.3 °F 52% 30.02 in 10.0 mi East 9.2 mph - N/A   Scattered Clouds
3:35 PM 91.9 °F 99.5 °F 72.1 °F 52% 30.01 in 10.0 mi North 3.5 mph - N/A   Clear
3:55 PM 92.7 °F 101.1 °F 72.9 °F 52% 30.00 in 10.0 mi NE 9.2 mph - N/A   Clear
4:15 PM 92.3 °F 101.5 °F 73.2 °F 54% 29.99 in 10.0 mi NNE 9.2 mph - N/A   Mostly Cloudy
4:35 PM 92.3 °F 100.9 °F 72.7 °F 53% 29.99 in 10.0 mi Calm Calm - N/A   Scattered Clouds
4:55 PM 93.2 °F 101.1 °F 71.8 °F 50% 29.99 in 10.0 mi ENE 3.5 mph - N/A   Scattered Clouds
5:15 PM 93.6 °F 101.9 °F 72.3 °F 50% 29.99 in 10.0 mi East 6.9 mph - N/A   Scattered Clouds
5:35 PM 90.5 °F 98.6 °F 72.9 °F 56% 29.99 in 10.0 mi East 9.2 mph - N/A Thunderstorm Mostly Cloudy
5:55 PM 87.4 °F 96.2 °F 74.3 °F 65% 30.00 in 10.0 mi East 11.5 mph 19.6 mph N/A Thunderstorm Overcast
6:15 PM 84.2 °F 90.9 °F 73.4 °F 70% 30.00 in 10.0 mi East 17.3 mph 25.3 mph N/A Thunderstorm Thunderstorm
6:35 PM 80.6 °F 85.0 °F 72.9 °F 77% 30.00 in 10.0 mi East 12.7 mph 19.6 mph N/A   Scattered Clouds
6:55 PM 81.5 °F 86.5 °F 72.9 °F 75% 30.00 in 10.0 mi ENE 5.8 mph - N/A   Mostly Cloudy
7:15 PM 82.4 °F 88.4 °F 73.6 °F 75% 30.01 in 10.0 mi NNE 5.8 mph - N/A   Scattered Clouds
7:35 PM 80.4 °F 86.1 °F 75.7 °F 86% 30.02 in 10.0 mi NE 3.5 mph - N/A   Clear
7:55 PM 80.6 °F 85.9 °F 74.5 °F 82% 30.02 in 10.0 mi ENE 5.8 mph - N/A   Clear
8:15 PM 79.9 °F - 74.7 °F 84% 30.02 in 10.0 mi East 4.6 mph - N/A   Clear
8:35 PM 79.7 °F - 74.8 °F 85% 30.02 in 10.0 mi East 5.8 mph - N/A   Clear
8:55 PM 79.3 °F - 75.0 °F 87% 30.03 in 10.0 mi East 5.8 mph - N/A   Clear
9:15 PM 79.0 °F - 75.2 °F 88% 30.03 in 10.0 mi East 4.6 mph - N/A   Clear
9:35 PM 79.0 °F - 75.0 °F 88% 30.04 in 10.0 mi East 5.8 mph - N/A   Clear
9:55 PM 78.6 °F - 75.0 °F 89% 30.05 in 10.0 mi East 4.6 mph - N/A   Clear
10:15 PM 78.3 °F - 75.0 °F 90% 30.05 in 10.0 mi East 5.8 mph - N/A   Clear
10:35 PM 78.3 °F - 74.8 °F 89% 30.05 in 10.0 mi East 4.6 mph - N/A   Clear
10:55 PM 77.5 °F - 74.7 °F 91% 30.05 in 10.0 mi ENE 3.5 mph - N/A   Clear
11:15 PM 77.4 °F - 74.7 °F 91% 30.05 in 10.0 mi East 3.5 mph - N/A   Clear
11:35 PM 77.2 °F - 74.8 °F 92% 30.05 in 7.0 mi Calm Calm - N/A   Clear
11:55 PM 76.6 °F - 74.7 °F 94% 30.05 in 10.0 mi Calm Calm - N/A   Clear